This demonstration page uses our WeatherBlox Daily Observations layout. Learn more.

41.55636, -103.73856

Hourly Observations for July 14, 2016

Temp ( °F °C ) Dew Point ( °F °C ) Humidity (%) Winds ( mph kmh ) Pressure ( in mb ) Visibility ( mi km ) Precip ( " mm )
12:53 am 00:53 Clear 68 20 48 8.9 49 49 ENE 16 26 29.99 1016 10 16.0934 0 0
1:53 am 01:53 Clear 64 17.8 48 8.9 56 56 SSE 9 15 30.03 1017 10 16.0934 0 0
2:53 am 02:53 Clear 63 17.2 47 8.3 56 56 E 7 11 30.04 1017 10 16.0934 0 0
3:53 am 03:53 Partly Cloudy 60 15.6 47 8.3 62 62 Calm 30.04 1017 10 16.0934 0 0
4:53 am 04:53 Mostly Cloudy 60 15.6 46 7.8 60 60 W 7 11 30.05 1018 10 16.0934 0 0
5:53 am 05:53 Sunny 60 15.6 46 7.8 60 60 W 5 7 30.06 1018 10 16.0934 0 0
6:53 am 06:53 Cloudy 62 16.7 47 8.3 58 58 Calm 30.07 1018 10 16.0934 0 0
7:53 am 07:53 Mostly Cloudy 65 18.3 49 9.4 56 56 NNW 6 9 30.09 1019 10 16.0934 0 0
8:53 am 08:53 Cloudy 70 21.1 47 8.3 44 44 W 6 9 30.1 1019 10 16.0934 0 0
9:53 am 09:53 Mostly Cloudy 73 22.8 45 7.2 37 37 Calm 30.1 1019 10 16.0934 0 0
10:53 am 10:53 Partly Cloudy 76 24.4 44 6.7 32 32 Calm 30.1 1019 10 16.0934 0 0
11:53 am 11:53 Sunny 79 26.1 43 6.1 28 28 VRB 6 9 30.08 1019 10 16.0934 0 0
12:53 pm 12:53 Sunny 81 27.2 44 6.7 27 27 VRB 6 9 30.06 1018 10 16.0934 0 0
1:53 pm 13:53 Sunny 83 28.3 44 6.7 25 25 E 3 6 30.05 1018 10 16.0934 0 0
2:53 pm 14:53 Sunny 85 29.4 45 7.2 25 25 WSW 7 11 30.03 1017 10 16.0934 0 0
3:53 pm 15:53 Sunny 84 28.9 42 5.6 23 23 VRB 6 9 30.01 1016 10 16.0934 0 0
4:53 pm 16:53 Sunny 85 29.4 44 6.7 24 24 ESE 8 13 29.99 1016 10 16.0934 0 0
5:53 pm 17:53 Sunny 85 29.4 45 7.2 25 25 E 9 15 29.97 1015 10 16.0934 0 0
6:53 pm 18:53 Sunny 83 28.3 47 8.3 28 28 ESE 9 15 29.96 1015 10 16.0934 0 0
7:53 pm 19:53 Sunny 78 25.6 51 10.6 39 39 ESE 9 15 29.96 1015 10 16.0934 0 0
8:53 pm 20:53 Clear 72 22.2 50 10 46 46 ESE 8 13 29.97 1015 10 16.0934 0 0
9:53 pm 21:53 Clear 69 20.6 51 10.6 53 53 ESE 9 15 29.99 1016 10 16.0934 0 0
10:53 pm 22:53 Clear 67 19.4 53 11.7 61 61 E 8 13 29.98 1015 10 16.0934 0 0
11:53 pm 23:53 Mostly Clear 66 18.9 53 11.7 63 63 ESE 7 11 29.98 1015 10 16.0934 0 0

Powered by AerisWeather